Погода в Устреке

Россия / Новгородская область     58°37′47″N   34°32′51″E
темп.,
°C
ветер,
м/с
пор.,
м/с
влажн.,
%
обл.,
%
осадки,
мм/ч
давл.,
гПа
погр.,
м
9 декабря, чт
чт900:00−16зюз1198100 0.0 102623
03:00−15з129863 0.0 102744
06:00−16зсз119861 0.0 102717
09:00−17з119962 0.0 10289
12:00−12з119314 0.0 102974
15:00−12з009757 0.0 102910
18:00−16сз119966 0.0 10309
21:00−16в119856 0.0 10319
10 декабря, пт
пт1000:00−17в119958 0.0 103218
03:00−18юв139824 0.0 103345
06:00−17юв24985 0.0 103358
09:00−16вюв28965 0.0 1033138
12:00−13вюв310915 0.0 1033229
15:00−11юв312875 0.0 1032304
18:00−12вюв413885 0.0 1033310
21:00−12юв415865 0.0 1032348
11 декабря, сб
сб1100:00−12юв4148519 0.0 1032360
03:00−11юв4158391 0.0 1032376
06:00−10юв4158198 0.0 1032392
09:00−10юв4158091 0.0 1032379
12:00−9юв4157992 0.0 1032410
15:00−8юв4138091 0.0 1032392
18:00−9юв41285100 0.0 1032321
21:00−10юв4138499 0.0 1032312
12 декабря, вс
вс1200:00−11юв31286100 0.0 1032285
03:00−10юв3138975 0.0 1031300
06:00−10юв3109315 0.0 1030286
09:00−6ююв31092100 0.0 1030321
12:00−4ююв31092100 0.0 1030307
15:00−2ююв3993100 0.0 1030264
18:00−2ююв31094100 0.0 1030317
21:00−1ююв3994100 0.0 1030280
13 декабря, пн
пн1300:00−2ю3995100 0.0 1030258
03:00−4ю2796100 0.0 1030192
06:00−5ю2697100 0.0 1029139
09:00−5ю2596100 0.0 1029130
12:00−3ююз2492100 0.0 1029147
15:00−3ююв1195100 0.0 102814
18:00−6ссв0098100 0.0 102910
21:00−6вюв1197100 0.0 102916